This is the latest recevied weather packets stored in our database for station/object N8TWM-13. If no packets are shown the sender has not sent any weather packets the latest 10 day(s).
| Time | Temp. | Humidity | Pressure | Rain* | Wind** | Luminosity | Snow |
|---|---|---|---|---|---|---|---|
| 1778071104 | 6.11° C | 95% | 1010.4 hPa | 0 mm | - | 46 W/m² | - |
| 1778070803 | 6.11° C | 95% | 1010.1 hPa | 0 mm | - | 62 W/m² | - |
| 1778070499 | 6.11° C | 95% | 1010 hPa | 0 mm | - | 49 W/m² | - |
| 1778070196 | 6.11° C | 96% | 1009.9 hPa | 0 mm | - | 72 W/m² | - |
| 1778069895 | 6.11° C | 96% | 1009.8 hPa | 0 mm | - | 93 W/m² | - |
| 1778069591 | 6.11° C | 96% | 1009.7 hPa | 0 mm | - | 87 W/m² | - |
| 1778069288 | 6.11° C | 96% | 1009.7 hPa | 0 mm | - | 48 W/m² | - |
| 1778068986 | 6.11° C | 96% | 1009.7 hPa | 0 mm | - | 57 W/m² | - |
| 1778068684 | 6.11° C | 97% | 1009.5 hPa | 0 mm | - | 135 W/m² | - |
| 1778068382 | 5.56° C | 97% | 1009.4 hPa | 0 mm | - | 89 W/m² | - |
| 1778068079 | 5.56° C | 97% | 1009.4 hPa | 0 mm | - | 78 W/m² | - |
| 1778067777 | 5.56° C | 97% | 1009.5 hPa | 0 mm | - | 70 W/m² | - |
| 1778067475 | 5.56° C | 97% | 1009.3 hPa | 0 mm | - | 30 W/m² | - |
| 1778067172 | 5.56° C | 97% | 1009.4 hPa | 0 mm | - | 22 W/m² | - |
| 1778066869 | 5.56° C | 97% | 1009.6 hPa | 0 mm | - | 26 W/m² | - |
| 1778066566 | 5.56° C | 97% | 1009.6 hPa | 0 mm | - | 18 W/m² | - |
| 1778066263 | 5.56° C | 97% | 1009.7 hPa | 0 mm | - | 7 W/m² | - |
| 1778065961 | 6.11° C | 97% | 1009.9 hPa | 0 mm | - | 4 W/m² | - |
| 1778065658 | 6.11° C | 97% | 1009.4 hPa | 0 mm | - | 4 W/m² | - |
| 1778065356 | 6.11° C | 97% | 1009.1 hPa | 0 mm | - | 5 W/m² | - |
| 1778065052 | 6.11° C | 97% | 1008.4 hPa | 0 mm | - | 7 W/m² | - |
| 1778064749 | 6.11° C | 97% | 1008.7 hPa | 0 mm | - | 5 W/m² | - |
| 1778064447 | 6.11° C | 97% | 1008.8 hPa | 0 mm | - | 3 W/m² | - |
| 1778064145 | 6.11° C | 97% | 1009 hPa | 0 mm | - | 1 W/m² | - |
| 1778063841 | 6.11° C | 97% | 1009.1 hPa | 0 mm | - | 0 W/m² | - |
* Rain latest hour (hover to see other rain measurements)
** Current wind speed in m/s (hover to see current wind gust speed)